Track GOSAT (IBUKI) now! 10-day predictions GOSAT (IBUKI) is classified as:
1 33492U 09002A 23083.85244608 .00002400 00000-0 43188-3 0 9998 2 33492 98.1331 199.3098 0001464 105.8632 254.2734 14.67522866758809